Find Starlink 32876

NORAD ID: 63151 Int'l Des: 2025-043 Owner: SPXS Country: US Constellation: starlink operational
LEOCIRCULAR

当前视图

正在加载3D地球...

About Starlink 32876

Starlink 32876 (NORAD 63151) is a starlink constellation satellite (v2 mini) launched Mar 3, 2025 by SPXS of US. It operates in LEO, CIRCULAR orbit with a mass of 730.00 kg.

即将过境

Passes for default location (London). Set your location on the main map for personalized predictions.

高度历史

Loading altitude history...

两行轨道根数

1 63151U 25043V 26265.54249393 .00017875 00000-0 65735-3 0 9997
2 63151 43.0053 344.0563 0002074 283.6138 76.4483 15.27587016 87472
Epoch: Sep 22, 2026 • Age: 17 hours

当前状态

高度 490.4 km
远地点 / 近地点 N/A
速度 7.62 km/s
星下点 -30.37°S, 111.16°E
发射日期 Mar 3, 2025
运行时间 1.5 years
类型 internet

技术详情

分类 Payload
质量 730.00 kg
干质量 700.00 kg
长度 0.30 m
跨度 29.00 m
形状 ? Box + pan
制造商 SPXS
平台类型 Starlink V2M
阶段状态 In Orbit
所有者/国家 SPXS/US

Most Searched